DW7126 Lourinha PT current weather conditions

sailwx.info

Wind from 110 at 9 knots gusting 19

Air temperature 11.7° C
Dewpoint 9.7° C

Last reported at 2020-Jan-24 10:57 UTC.
Time now 2020-Jan-24 11:30 UTC

Location: N 39°14' W 009°18'.
View on Google Maps.

See reports from other nearby stations

  
Tides and Currents Weather Stations Pressure Air Temp Water Temp Dewpoint Dewpoint Depression Visibility Wind Speed Wind Dir Waves Ship Positions
date/time (UTC)wind fromknots sea level pressurealtimeterstation pressurevisibilityair tempwater tempwave heightnotes
2020-Jan-24 10:57 110 9 gusting 19 11.7
2020-Jan-24 10:52 094 9 gusting 13 11.7
2020-Jan-24 10:46 121 10 gusting 19 11.7
2020-Jan-24 10:45 093 9 gusting 19 11.1
2020-Jan-24 10:36 133 10 gusting 19 11.7
2020-Jan-24 10:31 115 9 gusting 19 11.7
2020-Jan-24 10:26 094 9 gusting 18 11.7
2020-Jan-24 10:21 114 8 gusting 13 11.7
2020-Jan-24 10:16 080 9 gusting 15 11.7
2020-Jan-24 10:11 109 9 gusting 15 11.7
2020-Jan-24 10:06 115 10 gusting 18 11.7
2020-Jan-24 10:01 103 9 gusting 18 11.1
2020-Jan-24 09:56 088 7 gusting 13 11.1
2020-Jan-24 09:51 117 7 gusting 15 11.1
2020-Jan-24 09:46 094 7 gusting 15 10.6
2020-Jan-24 09:40 094 6 gusting 14 10.6
2020-Jan-24 09:35 122 7 gusting 14 10.6
2020-Jan-24 09:30 096 9 gusting 14 10.6
2020-Jan-24 09:25 097 9 gusting 14 10.6
2020-Jan-24 09:20 105 9 gusting 13 10.6
2020-Jan-24 09:15 088 9 gusting 15 10.6
2020-Jan-24 09:09 106 8 gusting 15 10.6
2020-Jan-24 09:04 111 7 gusting 18 10.6
2020-Jan-24 08:59 092 9 gusting 18 10.0
2020-Jan-24 08:54 107 9 gusting 18 10.0
2020-Jan-24 08:49 097 9 gusting 18 10.0
2020-Jan-24 08:44 113 8 gusting 15 10.0
2020-Jan-24 08:39 114 8 gusting 15 10.0
2020-Jan-24 08:34 090 9 gusting 14 10.0
2020-Jan-24 08:29 099 10 gusting 15 10.0
2020-Jan-24 08:24 121 10 gusting 15 10.0
2020-Jan-24 08:19 107 9 gusting 14 9.4
2020-Jan-24 08:14 109 9 gusting 15 10.0
2020-Jan-24 08:09 129 9 gusting 13 10.0
2020-Jan-24 08:04 107 10 gusting 13 10.0
2020-Jan-24 07:59 114 11 gusting 16 10.0
2020-Jan-24 07:54 090 11 gusting 16 9.4
2020-Jan-24 07:49 113 10 gusting 14 10.0
2020-Jan-24 07:44 088 10 gusting 13 9.4
2020-Jan-24 07:39 117 10 gusting 13 9.4
2020-Jan-24 07:33 094 10 gusting 15 9.4
2020-Jan-24 07:30 117 9 gusting 15 9.4
2020-Jan-24 07:23 098 10 gusting 15 9.4
2020-Jan-24 07:18 103 10 gusting 15 9.4
2020-Jan-24 07:13 105 11 gusting 16 9.4
2020-Jan-24 07:07 105 11 gusting 16 9.4
2020-Jan-24 07:02 105 12 gusting 16 9.4
2020-Jan-24 06:57 105 12 gusting 16 9.4
2020-Jan-24 06:52 099 11 gusting 15 9.4
2020-Jan-24 06:46 096 10 gusting 15 9.4
2020-Jan-24 06:41 092 8 gusting 13 9.4
2020-Jan-24 06:36 107 7 gusting 12 9.4
2020-Jan-24 06:31 105 8 gusting 13 9.4
2020-Jan-24 06:25 109 7 gusting 13 9.4
2020-Jan-24 06:20 115 6 gusting 12 9.4
2020-Jan-24 06:15 105 8 gusting 13 9.4
2020-Jan-24 06:10 102 8 gusting 13 9.4
2020-Jan-24 06:05 097 9 gusting 13 8.9
2020-Jan-24 06:00 093 9 gusting 13 8.9
2020-Jan-24 05:55 095 8 gusting 13 8.9
2020-Jan-24 05:50 102 9 gusting 13 8.9
2020-Jan-24 05:45 107 8 gusting 13 8.9
2020-Jan-24 05:40 080 8 gusting 13 8.9
2020-Jan-24 05:35 104 8 gusting 13 8.9
2020-Jan-24 05:30 096 8 gusting 13 8.9
2020-Jan-24 05:25 096 7 gusting 11 8.9
2020-Jan-24 05:20 094 7 gusting 11 8.9
2020-Jan-24 05:15 117 7 gusting 12 8.3
2020-Jan-24 05:10 096 8 gusting 12 8.3
2020-Jan-24 05:05 104 8 gusting 12 8.3
2020-Jan-24 04:59 115 7 gusting 9 8.3
2020-Jan-24 04:54 117 7 gusting 11 8.3
2020-Jan-24 04:49 104 6 gusting 9 8.3
2020-Jan-24 04:44 103 6 gusting 9 8.3
2020-Jan-24 04:38 106 6 gusting 9 8.3
2020-Jan-24 04:33 092 6 gusting 9 8.3
2020-Jan-24 04:28 092 6 gusting 12 8.3
2020-Jan-24 04:23 105 7 gusting 12 8.3
2020-Jan-24 04:18 096 8 gusting 13 8.3
2020-Jan-24 04:12 080 8 gusting 13 8.3
2020-Jan-24 04:07 089 9 gusting 13 8.3
2020-Jan-24 04:02 096 9 gusting 13 8.3
2020-Jan-24 03:57 077 10 gusting 13 8.3
2020-Jan-24 03:52 103 10 gusting 13 8.3
2020-Jan-24 03:47 096 9 gusting 12 8.3
2020-Jan-24 03:41 098 10 gusting 14 8.3
2020-Jan-24 03:36 104 10 gusting 13 8.3
2020-Jan-24 03:31 106 10 gusting 14 8.3
2020-Jan-24 03:26 088 9 gusting 13 8.3
2020-Jan-24 03:21 098 8 gusting 13 8.3
2020-Jan-24 03:16 104 7 gusting 13 8.3
2020-Jan-24 03:11 096 7 gusting 12 8.3
2020-Jan-24 03:06 098 7 gusting 12 8.3
2020-Jan-24 03:01 102 6 gusting 11 8.3
2020-Jan-24 02:56 088 5 gusting 9 8.3
2020-Jan-24 02:51 087 5 gusting 9 8.3
2020-Jan-24 02:46 094 4 gusting 9 8.3
2020-Jan-24 02:41 096 1 gusting 6 8.3
2020-Jan-24 02:36 112 1 gusting 6 8.3
2020-Jan-24 02:32 125 0 gusting 6 7.8
2020-Jan-24 02:25 129 2 gusting 6 7.8
2020-Jan-24 02:20 088 2 gusting 6 7.8
2020-Jan-24 02:17 099 0 gusting 3 7.8
2020-Jan-24 02:15 099 0 gusting 3 7.8
2020-Jan-24 02:10 111 0 gusting 2 7.8
2020-Jan-24 02:05 111 0 gusting 2 7.8
2020-Jan-24 01:59 043 0 gusting 2 7.8
2020-Jan-24 01:54 042 0 gusting 2 7.8
2020-Jan-24 01:49 042 1 gusting 3 7.8
2020-Jan-24 01:44 042 0 gusting 3 8.3
2020-Jan-24 01:39 109 0 gusting 3 8.3
2020-Jan-24 01:34 138 0 gusting 4 8.9
2020-Jan-24 01:29 139 2 gusting 5 8.9
2020-Jan-24 01:24 125 3 gusting 5 8.9
2020-Jan-24 01:18 132 3 gusting 8 9.4
2020-Jan-24 01:13 145 4 gusting 8 8.9
2020-Jan-24 01:08 142 5 gusting 8 9.4
2020-Jan-24 01:03 132 4 gusting 8 8.9
2020-Jan-24 00:58 128 5 gusting 7 8.9
2020-Jan-24 00:53 124 5 gusting 8 8.9
2020-Jan-24 00:48 102 5 gusting 8 8.9
2020-Jan-24 00:43 123 6 gusting 10 8.9
2020-Jan-24 00:38 094 6 gusting 10 8.9
2020-Jan-24 00:34 094 4 gusting 7 8.9
2020-Jan-24 00:28 113 4 gusting 7 8.9
2020-Jan-24 00:23 103 3 gusting 6 8.9
2020-Jan-24 00:17 107 3 gusting 6 8.9
2020-Jan-24 00:12 111 3 gusting 7 8.9
2020-Jan-24 00:07 111 4 gusting 7 8.9
2020-Jan-24 00:02 101 5 gusting 11 8.9
2020-Jan-23 23:57 098 6 gusting 11 8.9
2020-Jan-23 23:52 090 7 gusting 12 9.4
2020-Jan-23 23:47 100 7 gusting 12 9.4
2020-Jan-23 23:42 091 7 gusting 11 9.4
2020-Jan-23 23:37 101 7 gusting 11 9.4
2020-Jan-23 23:31 098 7 gusting 11 9.4
2020-Jan-23 23:26 097 7 gusting 11 9.4
2020-Jan-23 23:21 103 7 gusting 11 9.4
2020-Jan-23 23:16 093 7 gusting 11 9.4
2020-Jan-23 23:11 094 7 gusting 11 9.4
2020-Jan-23 23:06 079 7 gusting 11 9.4
2020-Jan-23 23:01 100 7 gusting 11 9.4
2020-Jan-23 22:56 105 7 gusting 11 9.4
2020-Jan-23 22:50 094 7 gusting 9 9.4
2020-Jan-23 22:40 107 7 gusting 13 9.4
2020-Jan-23 22:35 094 9 gusting 13 9.4
2020-Jan-23 22:30 107 9 gusting 13 9.4
2020-Jan-23 22:24 094 9 gusting 13 9.4
2020-Jan-23 22:19 102 9 gusting 13 9.4
2020-Jan-23 22:15 109 8 gusting 13 9.4
2020-Jan-23 22:09 096 10 gusting 13 9.4
2020-Jan-23 22:04 101 9 gusting 13 9.4
2020-Jan-23 21:59 085 9 gusting 13 9.4
2020-Jan-23 21:54 102 9 gusting 13 9.4
2020-Jan-23 21:49 084 9 gusting 13 9.4
2020-Jan-23 21:44 087 8 gusting 12 9.4
2020-Jan-23 21:39 116 8 gusting 12 9.4
2020-Jan-23 21:34 098 8 gusting 13 9.4
2020-Jan-23 21:30 097 8 gusting 13 9.4
2020-Jan-23 21:24 080 9 gusting 13 9.4
2020-Jan-23 21:18 092 8 gusting 13 9.4
2020-Jan-23 21:13 084 8 gusting 12 9.4
2020-Jan-23 21:08 094 9 gusting 13 10.0
2020-Jan-23 21:03 078 8 gusting 13 9.4
2020-Jan-23 20:57 092 7 gusting 12 10.0
2020-Jan-23 20:52 095 7 gusting 13 10.0
2020-Jan-23 20:47 092 7 gusting 13 10.0
2020-Jan-23 20:42 079 7 gusting 12 10.0
2020-Jan-23 20:37 099 8 gusting 13 10.0
2020-Jan-23 20:31 091 8 gusting 13 9.4
2020-Jan-23 20:26 090 8 gusting 11 9.4
2020-Jan-23 20:21 086 8 gusting 11 9.4
2020-Jan-23 20:16 088 9 gusting 13 9.4
2020-Jan-23 20:15 082 7 gusting 13 9.4
2020-Jan-23 20:06 081 7 gusting 12 10.0
2020-Jan-23 20:01 090 7 gusting 12 10.0
2020-Jan-23 19:56 078 8 gusting 12 10.0
2020-Jan-23 19:50 096 8 gusting 12 10.0
2020-Jan-23 19:45 086 8 gusting 12 10.0
2020-Jan-23 19:40 092 7 gusting 13 10.0
2020-Jan-23 19:35 094 8 gusting 13 10.0
2020-Jan-23 19:30 087 8 gusting 13 10.0
2020-Jan-23 19:24 083 8 gusting 12 10.0
2020-Jan-23 19:19 091 8 gusting 12 10.6
2020-Jan-23 19:14 090 8 gusting 12 10.6
2020-Jan-23 19:08 088 7 gusting 11 10.6
2020-Jan-23 19:03 094 7 gusting 9 10.6
2020-Jan-23 18:58 081 6 gusting 9 10.6
2020-Jan-23 18:53 095 7 gusting 13 10.6
2020-Jan-23 18:48 081 7 gusting 13 10.6
2020-Jan-23 18:43 084 6 gusting 9 10.6
2020-Jan-23 18:38 098 6 gusting 8 10.6
2020-Jan-23 18:33 085 6 gusting 9 10.6
2020-Jan-23 18:28 090 6 gusting 9 10.6
2020-Jan-23 18:23 086 7 gusting 11 10.6
2020-Jan-23 18:18 085 7 gusting 11 10.6
2020-Jan-23 18:13 088 7 gusting 11 11.1
2020-Jan-23 18:08 096 7 gusting 11 11.1
2020-Jan-23 18:03 088 7 gusting 12 11.1
2020-Jan-23 17:58 093 7 gusting 12 11.1
2020-Jan-23 17:53 094 7 gusting 11 11.1
2020-Jan-23 17:48 090 7 gusting 11 11.1
2020-Jan-23 17:43 092 7 gusting 11 11.1
2020-Jan-23 17:38 082 7 gusting 8 11.1
2020-Jan-23 17:33 085 7 gusting 11 11.1
2020-Jan-23 17:28 078 7 gusting 10 11.7
2020-Jan-23 17:23 085 7 gusting 10 11.7
2020-Jan-23 17:17 085 7 gusting 12 11.7
2020-Jan-23 17:12 079 8 gusting 8 11.7
2020-Jan-23 17:07 076 8 gusting 12 11.7
2020-Jan-23 17:02 085 8 gusting 11 11.7
2020-Jan-23 16:57 090 8 gusting 12 12.2
2020-Jan-23 16:51 076 7 gusting 12 12.2
2020-Jan-23 16:46 063 8 gusting 13 12.8
2020-Jan-23 16:41 077 7 gusting 13 12.8
2020-Jan-23 16:36 074 5 gusting 10 13.9
2020-Jan-23 16:33 075 4 gusting 6 13.9
2020-Jan-23 16:25 134 3 gusting 6 13.9
2020-Jan-23 16:20 197 4 gusting 6 13.9
2020-Jan-23 16:15 167 2 gusting 6 13.3
2020-Jan-23 16:10 128 2 gusting 5 13.3
2020-Jan-23 16:04 125 2 gusting 5 13.9
2020-Jan-23 15:59 116 2 gusting 7 13.9
2020-Jan-23 15:54 112 3 gusting 5 13.9
2020-Jan-23 15:49 139 4 gusting 8 13.9
2020-Jan-23 15:43 088 3 gusting 6 13.9
2020-Jan-23 15:38 128 4 gusting 5 13.9
2020-Jan-23 15:33 123 5 gusting 12 13.9
2020-Jan-23 15:28 092 5 gusting 9 13.9
2020-Jan-23 15:22 109 5 gusting 8 13.9
2020-Jan-23 15:17 163 5 gusting 6 13.3
2020-Jan-23 15:12 126 5 gusting 7 13.3
2020-Jan-23 15:07 117 4 gusting 6 13.3
2020-Jan-23 15:01 083 4 gusting 8 12.8
2020-Jan-23 14:56 117 4 gusting 8 12.8
2020-Jan-23 14:51 085 5 gusting 11 12.8
2020-Jan-23 14:46 102 6 gusting 11 12.8
2020-Jan-23 14:41 113 6 gusting 10 12.8
2020-Jan-23 14:35 109 6 gusting 9 12.8
2020-Jan-23 14:30 112 6 gusting 8 12.8
2020-Jan-23 14:25 088 5 gusting 8 12.8
2020-Jan-23 14:20 119 6 gusting 9 12.8
2020-Jan-23 14:15 115 6 gusting 9 12.8
2020-Jan-23 14:09 097 6 gusting 9 12.8
2020-Jan-23 14:04 101 5 gusting 9 13.3
2020-Jan-23 13:59 094 5 gusting 10 13.3
2020-Jan-23 13:54 111 4 gusting 10 13.3
2020-Jan-23 13:48 095 4 gusting 8 13.3
2020-Jan-23 13:43 119 5 gusting 9 12.8
2020-Jan-23 13:38 133 6 gusting 9 12.8
2020-Jan-23 13:33 093 5 gusting 9 12.8
2020-Jan-23 13:28 103 5 gusting 9 12.2
2020-Jan-23 13:23 097 6 gusting 12 12.2
2020-Jan-23 13:18 114 6 gusting 12 12.2
2020-Jan-23 13:13 103 6 gusting 13 12.2
2020-Jan-23 13:08 103 6 gusting 13 12.2
2020-Jan-23 13:02 083 7 gusting 13 12.2
2020-Jan-23 12:57 084 6 gusting 13 11.7
2020-Jan-23 12:52 086 5 gusting 10 11.7
2020-Jan-23 12:47 125 5 gusting 9 11.7
2020-Jan-23 12:41 100 6 gusting 9 11.7
2020-Jan-23 12:36 111 6 gusting 12 11.7
2020-Jan-23 12:31 092 6 gusting 12 11.7
2020-Jan-23 12:26 120 6 gusting 11 11.7
2020-Jan-23 12:21 126 6 gusting 12 11.7
2020-Jan-23 12:15 130 7 gusting 12 11.7
2020-Jan-23 12:05 117 6 gusting 15 11.7
2020-Jan-23 12:00 111 6 gusting 11 11.7
2020-Jan-23 11:55 130 6 gusting 11 11.7
2020-Jan-23 11:50 126 7 gusting 15 11.7
2020-Jan-23 11:44 129 9 gusting 15 11.7
2020-Jan-23 11:39 109 9 gusting 15 11.1
2020-Jan-23 11:34 094 7 gusting 15 11.1
2020-Jan-23 11:28 088 6 gusting 12 11.1
2020-Jan-23 11:23 095 6 gusting 12 11.1
2020-Jan-23 11:18 118 8 gusting 13 11.1
2020-Jan-23 11:13 175 8 gusting 13 11.1
2020-Jan-23 11:08 133 8 gusting 12 11.1
2020-Jan-23 11:03 126 9 gusting 15 11.1
2020-Jan-23 10:58 119 8 gusting 15 11.1
2020-Jan-23 10:53 117 8 gusting 13 11.1
2020-Jan-23 10:48 123 9 gusting 16 10.6
2020-Jan-23 10:43 086 9 gusting 16 10.6
2020-Jan-23 10:38 110 9 gusting 15 10.6
2020-Jan-23 10:33 098 8 gusting 15 10.6
2020-Jan-23 10:30 080 7 gusting 14 10.0
2020-Jan-23 10:23 127 6 gusting 15 10.6
2020-Jan-23 10:18 119 8 gusting 15 10.6
2020-Jan-23 10:13 122 9 gusting 18 10.0
2020-Jan-23 10:08 122 9 gusting 18 10.0
2020-Jan-23 10:03 148 7 gusting 14 10.0
2020-Jan-23 09:58 144 6 gusting 13 10.0
2020-Jan-23 09:53 119 6 gusting 12 10.0
2020-Jan-23 09:48 134 5 gusting 11 10.0
2020-Jan-23 09:43 111 6 gusting 11 10.0
2020-Jan-23 09:38 103 7 gusting 13 10.0
2020-Jan-23 09:33 132 6 gusting 13 10.0
2020-Jan-23 09:28 134 7 gusting 13 10.0
2020-Jan-23 09:23 134 7 gusting 13 10.0
2020-Jan-23 09:18 116 7 gusting 13 9.4
2020-Jan-23 09:13 124 8 gusting 13 9.4
2020-Jan-23 09:08 144 7 gusting 13 9.4
2020-Jan-23 09:03 090 7 gusting 12 9.4
2020-Jan-23 08:58 105 7 gusting 13 9.4
2020-Jan-23 08:53 088 7 gusting 13 9.4
2020-Jan-23 08:47 090 7 gusting 12 9.4
2020-Jan-23 08:42 096 6 gusting 12 9.4
2020-Jan-23 08:37 088 6 gusting 11 9.4
2020-Jan-23 08:32 092 6 gusting 9 9.4
2020-Jan-23 08:27 104 6 gusting 9 9.4
2020-Jan-23 08:22 121 6 gusting 9 9.4
2020-Jan-23 08:18 093 6 gusting 9 8.9
2020-Jan-23 08:11 101 6 gusting 8 9.4
2020-Jan-23 08:06 109 6 gusting 8 9.4
2020-Jan-23 08:01 096 5 gusting 7 9.4
2020-Jan-23 07:56 079 4 gusting 7 9.4
2020-Jan-23 07:51 074 4 gusting 8 9.4
2020-Jan-23 07:46 084 4 gusting 8 8.9
2020-Jan-23 07:41 095 5 gusting 7 8.9
2020-Jan-23 07:35 091 6 gusting 8 8.9
2020-Jan-23 07:30 093 6 gusting 8 8.9
2020-Jan-23 07:25 089 5 gusting 8 8.9
2020-Jan-23 07:20 098 5 gusting 6 8.9
2020-Jan-23 07:15 078 5 gusting 8 8.9
2020-Jan-23 07:10 084 6 gusting 8 8.9
2020-Jan-23 07:05 093 6 gusting 8 8.9
2020-Jan-23 07:00 074 6 gusting 8 8.9
2020-Jan-23 06:55 109 5 gusting 7 8.9
2020-Jan-23 06:50 086 5 gusting 6 8.9
2020-Jan-23 06:45 079 5 gusting 8 8.9
2020-Jan-23 06:35 094 5 gusting 7 9.4
2020-Jan-23 06:30 054 6 gusting 7 9.4
2020-Jan-23 06:25 086 5 gusting 7 9.4
2020-Jan-23 06:20 082 5 gusting 7 9.4
2020-Jan-23 06:15 080 6 gusting 7 9.4
2020-Jan-23 06:10 080 6 gusting 7 9.4
2020-Jan-23 06:05 077 6 gusting 7 9.4
2020-Jan-23 06:00 065 5 gusting 6 9.4
2020-Jan-23 05:55 074 4 gusting 6 9.4
2020-Jan-23 05:50 074 3 gusting 6 9.4
2020-Jan-23 05:45 078 4 gusting 6 9.4
2020-Jan-23 05:39 077 3 gusting 6 9.4
2020-Jan-23 05:34 091 3 gusting 6 9.4
2020-Jan-23 05:30 080 2 gusting 4 8.9
2020-Jan-23 05:24 085 4 gusting 6 9.4
2020-Jan-23 05:18 087 5 gusting 6 9.4
2020-Jan-23 05:13 084 6 gusting 7 9.4
2020-Jan-23 05:08 089 6 gusting 7 9.4
2020-Jan-23 05:03 086 5 gusting 7 9.4
2020-Jan-23 04:58 089 5 gusting 7 9.4
2020-Jan-23 04:53 075 4 gusting 8 9.4
2020-Jan-23 04:47 075 5 gusting 8 9.4
2020-Jan-23 04:45 082 4 gusting 9 8.9
2020-Jan-23 04:37 088 6 gusting 9 8.9
2020-Jan-23 04:32 086 6 gusting 9 8.9
2020-Jan-23 04:26 094 7 gusting 9 8.9
2020-Jan-23 04:21 067 6 gusting 9 8.9
2020-Jan-23 04:16 074 6 gusting 8 8.9
2020-Jan-23 04:11 084 4 gusting 7 8.9
2020-Jan-23 04:06 066 3 gusting 6 8.9
2020-Jan-23 04:01 067 3 gusting 6 8.9
2020-Jan-23 03:56 075 2 gusting 4 8.9
2020-Jan-23 03:51 066 2 gusting 4 9.4
2020-Jan-23 03:46 066 2 gusting 4 9.4
2020-Jan-23 03:41 066 2 gusting 4 9.4
2020-Jan-23 03:36 078 1 gusting 4 8.9
2020-Jan-23 03:31 060 0 gusting 3 9.4
2020-Jan-23 03:26 060 0 gusting 1 9.4
2020-Jan-23 03:20 060 0 gusting 3 9.4
2020-Jan-23 03:15 060 1 gusting 3 9.4
2020-Jan-23 03:10 060 1 gusting 4 9.4
2020-Jan-23 03:05 060 2 gusting 4 9.4
2020-Jan-23 02:59 065 2 gusting 4 9.4
2020-Jan-23 02:54 065 2 gusting 4 9.4
2020-Jan-23 02:49 048 1 gusting 4 9.4
2020-Jan-23 02:43 048 1 gusting 4 9.4
2020-Jan-23 02:38 046 1 gusting 3 9.4
2020-Jan-23 02:33 053 1 gusting 3 9.4
2020-Jan-23 02:28 053 1 gusting 3 8.9
2020-Jan-23 02:23 076 1 gusting 2 8.9
2020-Jan-23 02:18 077 0 gusting 2 8.9
2020-Jan-23 02:13 079 0 gusting 2 8.9
2020-Jan-23 02:08 079 8.9
2020-Jan-23 02:02 079 0 gusting 6 8.9
2020-Jan-23 01:57 079 1 gusting 6 8.9
2020-Jan-23 01:52 086 2 gusting 6 8.9
2020-Jan-23 01:47 082 3 gusting 5 8.9
2020-Jan-23 01:42 073 3 gusting 7 8.9
2020-Jan-23 01:37 061 4 gusting 7 8.9
2020-Jan-23 01:32 072 5 gusting 8 8.9
2020-Jan-23 01:30 082 5 gusting 8 8.9
2020-Jan-23 01:21 100 6 gusting 8 9.4
2020-Jan-23 01:16 095 5 gusting 7 8.9
2020-Jan-23 01:11 094 5 gusting 6 8.9
2020-Jan-23 01:06 077 3 gusting 6 8.9
2020-Jan-23 01:03 085 2 gusting 6 8.9
2020-Jan-23 00:55 074 1 gusting 4 8.9
2020-Jan-23 00:50 074 1 gusting 3 9.4
2020-Jan-23 00:45 074 1 gusting 4 8.9
2020-Jan-23 00:40 076 2 gusting 6 9.4
2020-Jan-23 00:34 063 3 gusting 6 9.4
2020-Jan-23 00:29 073 4 gusting 11 9.4
2020-Jan-23 00:24 076 5 gusting 11 9.4
2020-Jan-23 00:19 081 6 gusting 11 9.4
2020-Jan-23 00:14 084 6 gusting 11 9.4
2020-Jan-23 00:09 081 6 gusting 9 9.4
2020-Jan-23 00:04 065 6 gusting 9 9.4
2020-Jan-22 23:59 089 6 gusting 8 9.4
2020-Jan-22 23:53 082 7 gusting 13 9.4
2020-Jan-22 23:48 079 7 gusting 11 9.4
2020-Jan-22 23:43 092 7 gusting 13 9.4
2020-Jan-22 23:38 086 8 gusting 13 9.4
2020-Jan-22 23:32 080 7 gusting 12 9.4
2020-Jan-22 23:27 078 7 gusting 12 9.4
2020-Jan-22 23:22 073 6 gusting 12 9.4
2020-Jan-22 23:17 071 8 gusting 13 9.4
2020-Jan-22 23:12 074 9 gusting 13 9.4
2020-Jan-22 23:07 103 8 gusting 13 9.4
2020-Jan-22 23:02 086 8 gusting 12 9.4
2020-Jan-22 22:57 065 7 gusting 12 9.4
2020-Jan-22 22:51 088 7 gusting 10 9.4
2020-Jan-22 22:46 070 6 gusting 12 8.9
2020-Jan-22 22:41 074 6 gusting 12 9.4
2020-Jan-22 22:36 083 6 gusting 11 9.4
2020-Jan-22 22:30 073 5 gusting 13 9.4
2020-Jan-22 22:25 093 6 gusting 13 9.4
2020-Jan-22 22:20 082 6 gusting 8 9.4
2020-Jan-22 22:15 094 6 gusting 9 9.4
2020-Jan-22 22:10 071 5 gusting 9 9.4
2020-Jan-22 22:05 115 4 gusting 7 9.4
2020-Jan-22 22:00 074 4 gusting 6 9.4
2020-Jan-22 21:55 077 4 gusting 6 9.4
2020-Jan-22 21:50 061 3 gusting 6 9.4
2020-Jan-22 21:45 065 3 gusting 6 9.4
2020-Jan-22 21:40 066 3 gusting 6 9.4
2020-Jan-22 21:35 078 2 gusting 6 9.4
2020-Jan-22 21:30 071 2 gusting 6 9.4
2020-Jan-22 21:25 061 2 gusting 6 9.4
2020-Jan-22 21:19 070 2 gusting 3 9.4
2020-Jan-22 21:14 063 3 gusting 6 9.4
2020-Jan-22 21:09 086 4 gusting 6 9.4
2020-Jan-22 21:04 061 4 gusting 7 9.4
2020-Jan-22 20:59 074 4 gusting 7 9.4
2020-Jan-22 20:54 079 4 gusting 7 9.4
2020-Jan-22 20:48 098 3 gusting 7 9.4
2020-Jan-22 20:43 087 3 gusting 6 9.4
2020-Jan-22 20:38 083 3 gusting 6 9.4
2020-Jan-22 20:33 092 3 gusting 6 9.4
2020-Jan-22 20:28 084 2 gusting 6 9.4
2020-Jan-22 20:23 070 0 gusting 6 9.4
2020-Jan-22 20:18 084 0 gusting 6 9.4
2020-Jan-22 20:12 084 1 gusting 6 9.4
2020-Jan-22 20:07 071 2 gusting 6 9.4
2020-Jan-22 20:02 072 1 gusting 6 9.4
2020-Jan-22 19:56 082 2 gusting 6 9.4
2020-Jan-22 19:51 075 2 gusting 6 9.4
2020-Jan-22 19:46 086 1 gusting 4 9.4
2020-Jan-22 19:41 075 1 gusting 4 9.4
2020-Jan-22 19:36 082 1 gusting 4 9.4
2020-Jan-22 19:31 081 3 gusting 8 9.4
2020-Jan-22 19:26 101 5 gusting 8 9.4
2020-Jan-22 19:21 096 5 gusting 8 9.4
2020-Jan-22 19:16 084 5 gusting 8 9.4
2020-Jan-22 19:11 086 5 gusting 8 9.4
2020-Jan-22 19:06 082 4 gusting 8 9.4
2020-Jan-22 19:01 082 3 gusting 7 9.4
2020-Jan-22 19:00 065 4 gusting 7 9.4
2020-Jan-22 18:51 062 3 gusting 7 9.4
2020-Jan-22 18:46 058 3 gusting 7 9.4
2020-Jan-22 18:41 045 3 gusting 7 9.4
2020-Jan-22 18:36 068 5 gusting 9 9.4
2020-Jan-22 18:31 057 6 gusting 10 9.4
2020-Jan-22 18:26 067 6 gusting 10 9.4
2020-Jan-22 18:21 053 6 gusting 7 9.4
2020-Jan-22 18:16 071 4 gusting 14 9.4
2020-Jan-22 18:11 076 6 gusting 14 9.4
2020-Jan-22 18:06 055 6 gusting 12 9.4
2020-Jan-22 18:01 067 6 gusting 7 9.4
2020-Jan-22 17:56 052 6 gusting 12 10.0
2020-Jan-22 17:51 059 6 gusting 12 10.0
2020-Jan-22 17:46 070 6 gusting 11 10.0
2020-Jan-22 17:45 076 6 gusting 10 9.4
2020-Jan-22 17:36 062 6 gusting 7 9.4
2020-Jan-22 17:31 052 6 gusting 10 9.4
2020-Jan-22 17:26 065 5 gusting 10 9.4
2020-Jan-22 17:21 057 4 gusting 7 10.0
2020-Jan-22 17:16 059 5 gusting 8 10.0
2020-Jan-22 17:11 050 5 gusting 8 10.0
2020-Jan-22 17:06 073 5 gusting 8 10.0
2020-Jan-22 17:01 051 5 gusting 8 10.0
2020-Jan-22 17:00 040 5 gusting 8 9.4
2020-Jan-22 16:51 052 5 gusting 7 10.0
2020-Jan-22 16:46 052 5 gusting 9 10.0
2020-Jan-22 16:45 061 4 gusting 9 9.4
2020-Jan-22 16:35 046 5 gusting 8 9.4
2020-Jan-22 16:30 057 5 gusting 7 10.0
2020-Jan-22 16:25 067 5 gusting 9 9.4
2020-Jan-22 16:20 051 5 gusting 9 9.4
2020-Jan-22 16:15 050 6 gusting 11 9.4
2020-Jan-22 16:10 063 6 gusting 11 9.4
2020-Jan-22 16:05 061 6 gusting 8 9.4
2020-Jan-22 16:00 074 5 gusting 9 9.4
2020-Jan-22 15:55 065 6 gusting 13 9.4
2020-Jan-22 15:50 067 8 gusting 13 9.4
2020-Jan-22 15:45 054 5 gusting 9 9.4
2020-Jan-22 15:40 073 4 gusting 9 10.0
2020-Jan-22 15:35 050 6 gusting 12 9.4
2020-Jan-22 15:29 049 6 gusting 12 9.4
2020-Jan-22 15:24 042 7 gusting 11 10.0
2020-Jan-22 15:19 046 7 gusting 13 10.0
2020-Jan-22 15:14 061 6 gusting 12 10.0
2020-Jan-22 15:09 067 8 gusting 13 10.0
2020-Jan-22 15:04 063 9 gusting 13 10.0
2020-Jan-22 14:59 062 6 gusting 13 10.0
2020-Jan-22 14:53 062 6 gusting 13 10.6
2020-Jan-22 14:48 061 7 gusting 13 10.6
2020-Jan-22 14:43 074 9 gusting 16 10.6
2020-Jan-22 14:38 076 10 gusting 16 10.6
2020-Jan-22 14:32 035 10 gusting 19 11.1
2020-Jan-22 14:27 051 11 gusting 19 11.7
2020-Jan-22 14:22 083 8 gusting 18 11.7
2020-Jan-22 14:17 043 6 gusting 13 12.2
2020-Jan-22 14:11 055 6 gusting 10 12.2
2020-Jan-22 14:06 058 6 gusting 8 12.2
2020-Jan-22 14:01 059 5 gusting 11 12.2
2020-Jan-22 13:56 058 5 gusting 11 12.2
2020-Jan-22 13:51 055 6 gusting 9 12.2
2020-Jan-22 13:46 055 6 gusting 9 12.2
2020-Jan-22 13:41 076 6 gusting 8 12.2
2020-Jan-22 13:36 053 7 gusting 10 12.2
2020-Jan-22 13:31 063 6 gusting 13 12.2
2020-Jan-22 13:26 075 8 gusting 13 12.2
2020-Jan-22 13:21 091 9 gusting 13 12.2
2020-Jan-22 13:15 069 8 gusting 16 12.2
2020-Jan-22 13:10 084 9 gusting 13 12.2
2020-Jan-22 13:05 086 10 gusting 21 12.8
2020-Jan-22 13:00 065 10 gusting 21 12.8
2020-Jan-22 12:54 060 10 gusting 13 12.8
2020-Jan-22 12:49 088 10 gusting 17 12.8
2020-Jan-22 12:44 084 12 gusting 15 12.8
2020-Jan-22 12:39 069 13 gusting 20 12.8
2020-Jan-22 12:33 078 12 gusting 19 12.8
2020-Jan-22 12:28 068 11 gusting 22 12.8
2020-Jan-22 12:23 066 13 gusting 22 12.8
2020-Jan-22 12:17 055 15 gusting 22 12.8
2020-Jan-22 12:15 042 14 gusting 22 12.8
2020-Jan-22 12:07 099 10 gusting 19 13.3
2020-Jan-22 12:02 060 9 gusting 19 13.3
2020-Jan-22 11:57 052 11 gusting 19 13.3
2020-Jan-22 11:52 058 13 gusting 23 12.8
2020-Jan-22 11:47 078 13 gusting 21 12.8
2020-Jan-22 11:42 074 15 gusting 24 12.8
2020-Jan-22 11:37 083 13 gusting 24 13.3
2020-Jan-22 11:33 098 9 gusting 19 12.8
2020-Jan-22 11:26 046 12 gusting 19 12.8